Regional Weather Roundup
Issued by NWS

Home | Current Version | Previous Version | Graphics & Text | Print | Product List | Glossary On
Versions: 1 2 3 4 5 6 7 8 9 10 11 12 13 14 15 16 17 18 19 20 21 22 23 24 25 26 27 28 29 30 31 32 33 34 35 36 37 38 39 40 41 42 43 44 45 46 47 48 49 50
000
ASUS43 KLOT 301021
RWRIL

ILLINOIS REGIONAL WEATHER ROUNDUP
NATIONAL WEATHER SERVICE CHICAGO/ROMEOVILLE IL
500 AM CDT TUE JUN 30 2015

NOTE: "FAIR" INDICATES FEW OR NO CLOUDS BELOW 12,000 FEET WITH NO
SIGNIFICANT WEATHER AND/OR OBSTRUCTIONS TO VISIBILITY.

* THESE STATIONS ARE NOT UNDER NWS QUALITY CONTROL. THEY ALSO MAY NOT
  REPORT WEATHER SUCH AS PRECIPITATION OR FOG.

ILZ001-002-007-009-015-016-024-301100-
NORTHWEST ILLINOIS

CITY           SKY/WX    TMP DP  RH WIND       PRES   REMARKS
MOLINE         CLEAR     62  60  93 CALM      29.81R
STERLING*        N/A     59  57  94 W5        29.82R VSB 1
SAVANNA*       CLEAR     61  59  94 NW3       29.82R
$$

ILZ003-004-008-010-011-017-018-301100-
NORTH CENTRAL ILLINOIS

CITY           SKY/WX    TMP DP  RH WIND       PRES   REMARKS
ROCKFORD       PTCLDY    60  58  92 CALM      29.80F FOG
FREEPORT*      CLEAR     58  58  99 W5        29.82S FOG
ROCHELLE*      CLEAR     59  58  98 W3        29.81S FOG
DE KALB*       PTCLDY    58  58  97 W6        29.80S
PERU*          CLEAR     63  61  96 W6        29.81S
$$

ILZ005-006-012>014-019>023-301100-
NORTHEAST ILLINOIS

CITY           SKY/WX    TMP DP  RH WIND       PRES   REMARKS
CHICAGO-OHARE  MOCLDY    63  60  90 W6        29.77R
CHICAGO-MIDWAY CLOUDY    66  63  90 W7        29.77R FOG
AURORA         MOCLDY    60  57  89 W6        29.79S
LANSING*       MOCLDY    64  61  91 W6        29.78R
JOLIET*        MOCLDY    64  62  95 CALM      29.79R
WAUKEGAN       MOCLDY    60  59  96 W3        29.76S
DUPAGE AIRPORT MOCLDY    61  59  93 NW6       29.77S
KANKAKEE*      MOCLDY    64  63  96 W6        29.80R
WHEELING       MOCLDY    63  59  87 NW6       29.78R
MORRIS*        MOCLDY    61  60  95 W6        29.78R
ROMEOVILLE*    MOCLDY    62  61  97 W5        29.79R
NORTHERLY ISL    N/A     65  62  90 W5          N/A
$$

LMZ740>746-301100-
SOUTHERN LAKE MICHIGAN

STATION/POSITION SKY/WX   TEMP    WIND        PRES    VSBY  WAVE
                          AIR SEA DIR/SP/G                  HT/PER
                          (F)     (DEG/KT/KT) (MB)    (MI)  (FT/S)
HARRISON CRIB              65     280/  8/  9   N/A
BURNHAM HARBOR             65      CALM  /  8   N/A
CALUMET HARBOR             65     190/  2/  3   N/A
BURNS HARBOR               65     220/  3/  5 1008.8S
MICHIGAN CITY              64     130/  8/ 10   N/A
MICHIGAN CITY 6N           64 65  180/  8/  8   N/A           0
ST. JOSEPH                 63 63                N/A           1
$$

ILZ025>027-034>036-040-047-049-050-058-095>099-301100-
WEST-CENTRAL ILLINOIS

CITY           SKY/WX    TMP DP  RH WIND       PRES   REMARKS
QUINCY         CLEAR     65  63  93 SW5       29.86S
GALESBURG*     CLEAR     62  61  97 CALM      29.83S FOG
MACOMB*        CLEAR     64  64  99 W6        29.85S FOG
JACKSONVILLE*  CLEAR     67  65  93 SW5       29.85S
PITTSFIELD*    CLEAR     67  64  89 CALM      29.88R
$$

ILZ028>032-037-038-041>044-048-051>054-059>061-301100-
CENTRAL ILLINOIS

CITY           SKY/WX    TMP DP  RH WIND       PRES   REMARKS
PONTIAC        MOCLDY    65  64  98 W7        29.82R
BLOOMINGTON    MOCLDY    67  66  96 W7        29.83S
DECATUR        PTCLDY    68  65  90 W5        29.83S
PEORIA         MOCLDY    66  62  87 CALM      29.82S
LACON*         PTCLDY    62  60  95 CALM      29.80S
LINCOLN*       MOCLDY    68  65  90 SW3       29.82S
SPRINGFIELD    PTCLDY    68  65  90 SW8       29.83F
TAYLORVILLE    PTCLDY    64  63  94 W5        29.84S
$$

ILZ033-039-045-046-055>057-062-063-301100-
EAST-CENTRAL ILLINOIS

CITY           SKY/WX    TMP DP  RH WIND       PRES   REMARKS
CHAMPAIGN      PTCLDY    65  63  93 SW6       29.82S FOG
DANVILLE*      PTCLDY    61  60  97 SW7       29.80R
RANTOUL*       MOCLDY    66  65  94 W5        29.82R
MATTOON        CLEAR     67  64  90 W6        29.83S
PARIS*         PTCLDY    63  62  97 CALM      29.84R
$$

ILZ079-100>102-301100-
SOUTHWEST ILLINOIS

CITY           SKY/WX    TMP DP  RH WIND       PRES   REMARKS
ALTON          CLEAR     67  67 100 CALM      29.87R
BELLEVILLE     CLEAR     67  67 100 SW3       29.85S
CAHOKIA*       CLEAR     69  66  90 SW5       29.86S
SPARTA*        PTCLDY    69  67  94 SW3       29.89R
$$

ILZ064>066-069>071-074>076-080>082-084>086-088>090-092>094-301100-
SOUTH-CENTRAL ILLINOIS

CITY           SKY/WX    TMP DP  RH WIND       PRES   REMARKS
CARBONDALE     PTCLDY    68  66  93 S3        29.88R
CAIRO*         CLEAR     70  69  96 W3        29.88R
EFFINGHAM*     CLEAR     67  64  89 SW6       29.86S
MARION         PTCLDY    68  66  94 CALM      29.89R
MT. VERNON     CLEAR     64  61  88 SW3       29.88R
CENTRALIA*     CLEAR     66  64  91 SW5       29.87R
SALEM*         CLEAR     68  65  91 CALM      29.86F
METROPOLIS*    CLEAR     68  68 100 CALM      29.89R FOG
$$

ILZ067-068-072-073-078-083-087-091-301100-
SOUTHEAST ILLINOIS

CITY           SKY/WX    TMP DP  RH WIND       PRES   REMARKS
LAWRENCEVILLE  PTCLDY    66  63  90 CALM      29.85S
FLORA*         PTCLDY    66  64  94 W5        29.86S
FAIRFIELD*     CLEAR     67  65  93 SW5       29.86R
HARRISBURG*    PTCLDY    66  66 100 CALM      29.89R
ROBINSON*      CLEAR     66  64  94 SW5       29.85S
CARMI*         PTCLDY    67  62  83 CALM      29.87R
$$

ABBREVIATIONS USED IN REMARKS
   TC - TEMPERATURE IN CELSIUS
  WCI - WIND CHILL INDEX
   HX - HEAT INDEX
  VSB - VISIBILITY
$$




USA.gov is the U.S. government's official web portal to all federal, state and local government web resources and services.